Home   Weather   Township of Washington   Past weeks
Flag for USA

Past Weather in Township of Washington, Kansas, USA — Yesterday and Last 2 Weeks

Now
20 °F

Overcast.


Feels Like: 7 °F
Forecast: 30 / 11 °F
Wind: 12 mph from Northwest

Location: Hebron Municipal Airport

Current Time: Jan 23, 2019 at 3:28:05 am

Latest Report: Jan 23, 2019 at 2:55 am


Visibility: 10 mi

Pressure: 30.08 "Hg

Humidity: 80%

Dew Point: 15 °F

Location of Township of WashingtonLocation

Past Weather in Township of Washington — Graph

°F

Township of Washington Temperature Yesterday

Maximum temperature yesterday: 29 °F (at 2:35 am)
Minimum temperature yesterday: 19 °F (at 4:55 pm)
Average temperature yesterday: 23 °F

High & Low Weather Summary for the Past Weeks

 TemperatureHumidityPressure
High47 °F (Jan 8, 2:35 pm)100% (Jan 15, 2:35 am)30.58 "Hg (Jan 15, 2:35 am)
Low11 °F (Jan 19, 9:15 pm)33% (Jan 8, 2:55 pm)29.66 "Hg (Jan 21, 10:35 pm)
Average27 °F85%30.17 "Hg
* Reported Jan 8 2:15 am — Jan 23 2:15 am, Township of Washington. Weather by CustomWeather, © 2019

Note: Actual official high and low records may vary slightly from our data, if they occured in-between our weather recording intervals... More about our weather records

Advertising

Township of Washington Weather History for the Previous 24 Hours

Scroll right to see more
 ConditionsComfort  
Time TempWeatherWind HumidityBarometerVisibility
2:15 am
Wed, Jan 23
19 °FPassing clouds.12 mph81%30.08 "Hg10 mi
1:55 am19 °FLight snow. Passing clouds.9 mph86%30.08 "Hg10 mi
1:35 am19 °FLight snow. Mostly cloudy.10 mph88%30.08 "Hg3 mi
1:15 am19 °FLight snow. Overcast.12 mph87%30.08 "Hg4 mi
12:55 am19 °FLight snow. Mostly cloudy.9 mph88%30.08 "Hg3 mi
12:35 am20 °FLight snow. Overcast.10 mph86%30.09 "Hg5 mi
11:55 pm
Tue, Jan 22
20 °FLight snow. Overcast.13 mph87%30.08 "Hg3 mi
11:35 pm20 °FLight snow. Mostly cloudy.13 mph88%30.08 "Hg2 mi
11:15 pm20 °FLight snow. Overcast.12 mph88%30.07 "Hg3 mi
10:55 pm20 °FLight snow. Mostly cloudy.10 mph90%30.06 "Hg2 mi
10:35 pm19 °FSnow. Overcast.8 mph91%30.06 "Hg1 mi
10:15 pm19 °FLight snow. Mostly cloudy.12 mph88%30.06 "Hg1 mi
9:55 pm19 °FLight snow. Mostly cloudy.12 mph84%30.06 "Hg5 mi
9:35 pm19 °FOvercast.14 mph83%30.06 "Hg7 mi
9:15 pm19 °FLight snow. Mostly cloudy.15 mph83%30.06 "Hg5 mi
8:55 pm19 °FLight snow. Overcast.14 mph83%30.07 "Hg5 mi
8:35 pm19 °FLight snow. Overcast.16 mph84%30.07 "Hg5 mi
8:15 pm19 °FLight snow. Mostly cloudy.17 mph84%30.07 "Hg3 mi
7:55 pm19 °FLight snow. Mostly cloudy.14 mph84%30.08 "Hg3 mi
7:35 pm19 °FLight snow. Mostly cloudy.14 mph84%30.07 "Hg2 mi
6:55 pm19 °FLight snow. Mostly cloudy.15 mph81%30.04 "Hg4 mi
5:55 pm20 °FCold.15 mph84%30.03 "HgN/A
5:35 pm19 °FOvercast.13 mph85%30.04 "HgN/A
5:15 pm19 °FCold.16 mph87%30.02 "HgN/A
4:55 pm19 °FMostly cloudy.17 mph90%30.02 "HgN/A
4:35 pm19 °FMostly cloudy.17 mph88%30.03 "HgN/A
4:15 pm19 °FCold.15 mph86%30.03 "HgN/A
3:55 pm19 °FCold.18 mph88%30.02 "HgN/A
3:35 pm20 °FLow clouds.16 mph90%29.99 "HgN/A
2:35 pm21 °FLight snow. Mostly cloudy.18 mph89%29.99 "Hg1 mi
2:15 pm22 °FLight snow. Mostly cloudy.20 mph89%29.98 "Hg1 mi
1:55 pm23 °FLight snow. Overcast.21 mph89%29.97 "Hg1 mi
1:35 pm23 °FSnow. Low clouds.22 mph89%29.98 "Hg1 mi
1:15 pm24 °FLight snow. More clouds than sun.15 mph88%29.97 "Hg1 mi
12:55 pm24 °FLight snow. Overcast.17 mph88%29.96 "Hg1 mi
12:35 pm24 °FLight snow. Mostly cloudy.18 mph88%29.95 "Hg2 mi
12:15 pm24 °FLight snow. Overcast.16 mph88%29.96 "Hg1 mi
11:55 am25 °FLight snow. Mostly cloudy.17 mph85%29.96 "Hg2 mi
11:35 am25 °FOvercast.17 mph85%29.97 "Hg7 mi
11:15 am24 °FIce fog.20 mph89%29.96 "Hg2 mi
10:55 am25 °FIce fog.16 mph89%29.97 "Hg2 mi
10:35 am25 °FIce fog.18 mph89%29.97 "Hg3 mi
10:15 am25 °FIce fog.17 mph89%29.96 "Hg3 mi
9:55 am24 °FIce fog.15 mph91%29.95 "Hg2 mi
9:35 am25 °FIce fog.16 mph90%29.92 "Hg2 mi
9:15 am25 °FIce fog.13 mph88%29.92 "Hg5 mi
8:55 am25 °FIce fog.15 mph88%29.92 "Hg5 mi
8:35 am25 °FLow clouds.16 mph89%29.90 "Hg7 mi
8:15 am25 °FLow clouds.14 mph91%29.88 "Hg7 mi
7:35 am25 °FIce fog.17 mph93%29.84 "Hg5 mi
7:15 am25 °FIce fog.14 mph93%29.83 "Hg4 mi
6:55 am25 °FIce fog.16 mph94%29.82 "Hg3 mi
6:35 am26 °FIce fog.14 mph94%29.82 "Hg3 mi
5:55 am26 °FIce fog.15 mph94%29.80 "Hg3 mi
5:35 am26 °FIce fog.14 mph93%29.79 "Hg3 mi
5:15 am25 °FIce fog.15 mph92%29.78 "Hg4 mi
4:55 am25 °FMostly cloudy.16 mph89%29.78 "Hg7 mi
4:35 am26 °FOvercast.14 mph86%29.77 "Hg10 mi
4:15 am26 °FMostly cloudy.10 mph88%29.76 "Hg10 mi
3:55 am26 °FOvercast.13 mph87%29.75 "Hg10 mi
3:35 am26 °FOvercast.13 mph88%29.74 "Hg10 mi
3:15 am26 °FMostly cloudy.9 mph88%29.73 "Hg10 mi
Weather by CustomWeather, © 2019

See weather overview